Location: Maddington
(51.2000°N, 1.9167°W)
Time: 04:42:08
(UTC+00:00)

Cosmos 1908 Rocket - Pass Details

Date: 18 September 2020
Orbit: 607 x 631 km, 82.5° (Epoch: 20 October)

Event Time Altitude Azimuth Distance (km) Brightness Sun altitude
Rises 18:45:17 0° 188° (S) 2,860 7.0 -5.7°
Reaches altitude 10° 18:47:28 10° 188° (S) 1,964 6.1 -6.0°
Maximum altitude 18:51:50 88° 97° (E) 622 3.6 -6.7°
Drops below altitude 10° 18:56:15 10° 11° (N) 1,994 6.2 -7.4°
Sets 18:58:30 0° 11° (N) 2,909 7.0 -7.7°
